GFSNIL_sfc_temp_030.txt.gz
Temp
76 80 77 76 76 77 70 74 75 75 74 75 76 76 75 72 72 72 71 72 74 74
77 75 77 75 76 72 74 75 75 75 75 76 76 76 75 72 73 73 72 68 63 71
77 78 78 76 75 73 74 76 75 75 75 76 76 75 74 73 75 73 73 74 70 72
78 79 78 76 77 74 74 76 77 77 75 76 75 75 73 74 75 72 72 74 74 69
78 79 77 75 75 74 74 77 78 78 76 76 76 75 75 75 75 73 72 67 67 69
75 77 74 75 74 75 74 75 78 78 74 75 75 74 75 74 73 71 68 68 69 67
76 75 75 75 75 75 75 75 76 74 73 73 72 71 70 71 72 69 70 71 72 72
76 76 77 76 75 75 74 73 73 70 69 69 69 71 69 69 69 70 71 71 72 72
78 76 76 75 75 74 70 72 71 67 68 67 71 51 55 65 68 68 67 66 68 70
78 77 76 77 75 71 71 64 70 69 68 66 68 50 51 55 70 67 68 68 65 65
79 78 77 77 75 73 69 65 63 63 62 62 67 49 49 52 71 68 66 66 65 66
81 78 77 76 74 74 70 71 69 67 61 58 61 47 47 59 69 65 63 67 64 65
82 79 77 75 74 75 73 73 73 67 64 55 58 44 46 58 70 65 63 69 63 52
81 79 78 75 75 74 75 74 72 70 67 61 58 54 47 52 64 63 64 66 65 63

GFSNIL_sfc_temp_033.txt.gz
Temp
79 80 79 77 75 73 75 72 75 76 76 76 76 77 75 73 72 72 72 73 73 74
79 78 78 76 75 75 75 76 77 77 75 76 75 75 74 72 74 70 71 73 73 70
76 79 80 76 74 75 75 79 78 76 75 77 78 75 74 73 74 71 69 69 70 70
76 79 79 76 76 75 76 77 76 77 76 76 76 76 73 73 74 70 70 68 69 70
77 79 75 75 75 76 76 79 79 76 79 77 76 75 74 74 75 74 73 72 72 69
77 76 74 74 75 76 75 79 81 78 78 78 77 76 75 76 75 72 69 69 70 66
75 76 76 76 75 73 75 76 79 77 79 78 78 77 76 74 70 70 71 73 71 66
75 79 76 77 76 75 76 75 78 77 76 72 72 72 71 70 71 72 72 73 72 67
75 77 75 75 76 74 75 73 72 70 69 70 77 53 56 64 72 72 72 70 70 68
76 75 73 76 75 72 71 70 69 70 69 72 69 52 52 55 71 70 70 69 68 68
82 76 74 73 73 71 69 66 63 64 67 71 67 50 50 54 70 71 70 69 68 65
84 78 74 74 71 71 73 70 67 67 61 64 65 48 47 55 73 71 68 69 67 64
85 82 80 77 71 72 72 70 70 67 65 55 68 46 46 55 70 69 63 62 61 50
84 81 79 77 72 72 73 71 69 67 63 63 67 63 46 49 71 70 66 66 64 62

GFSNIL_sfc_temp_036.txt.gz
Temp
75 74 73 72 72 69 69 69 71 71 71 71 71 70 69 67 66 67 66 66 67 65
75 76 74 72 73 70 72 71 72 72 71 72 72 70 69 66 67 67 67 66 66 66
75 76 72 73 72 72 72 71 71 71 72 71 70 70 69 68 68 66 66 66 66 65
74 73 73 72 73 72 72 72 73 73 72 72 70 70 68 67 68 67 66 65 64 63
73 72 72 72 72 73 73 74 72 72 71 72 72 70 69 70 69 69 65 64 62 63
71 72 72 72 73 73 73 71 71 72 70 71 71 71 71 71 68 66 66 65 64 64
72 72 71 72 73 73 74 72 70 71 72 72 71 73 71 68 67 67 68 66 64 64
74 73 74 72 71 72 73 72 71 70 70 71 70 70 67 69 68 68 66 64 64 63
75 70 72 72 71 71 71 69 69 69 69 69 69 52 56 63 68 68 66 63 63 63
74 73 73 72 71 68 68 67 66 67 69 66 63 52 52 55 68 66 66 65 65 65
76 74 73 71 69 68 68 65 64 65 68 65 62 50 49 51 67 65 65 66 65 64
77 73 73 70 68 68 68 66 64 65 62 64 63 47 47 54 67 64 64 65 64 63
78 75 70 70 68 69 68 66 63 62 63 58 63 47 46 53 66 63 62 62 59 51
79 76 74 70 69 69 68 67 64 64 63 66 64 58 46 48 66 63 61 62 62 58

GFSNIL_sfc_temp_042.txt.gz
Temp
63 61 62 61 61 61 61 61 62 62 62 62 63 62 61 59 60 60 60 60 59 59
63 62 61 62 62 61 61 63 62 62 62 62 63 62 61 60 61 61 60 60 59 60
62 63 63 63 62 62 62 63 62 62 62 62 62 62 61 60 62 61 59 60 60 60
63 64 62 62 62 62 62 62 62 63 63 63 63 62 61 61 61 61 60 60 60 60
63 62 62 62 63 62 62 62 64 63 64 63 64 62 62 62 62 61 62 61 61 60
62 62 62 62 62 62 63 63 63 64 63 64 63 63 62 63 62 62 62 62 61 60
61 61 61 62 62 63 64 65 67 65 66 65 64 63 63 63 61 62 63 63 62 61
62 62 62 62 63 63 63 65 67 65 63 61 62 63 62 62 61 61 61 62 62 62
63 63 62 62 62 61 61 61 61 63 60 59 61 50 53 59 60 60 60 60 59 60
64 63 62 62 62 60 59 59 59 58 58 57 55 47 49 52 60 59 59 59 60 61
65 64 62 61 60 59 58 58 58 57 56 56 54 46 48 52 60 59 61 59 61 60
66 63 62 61 59 59 59 58 57 57 55 55 54 46 50 57 61 60 60 61 61 60
66 64 62 60 59 59 59 60 60 58 57 52 57 45 49 57 61 58 58 58 58 51
64 62 62 60 60 59 58 58 59 58 57 55 54 52 47 50 57 57 58 58 57 55

GFSNIL_sfc_temp_045.txt.gz
Temp
61 60 60 60 60 60 59 60 61 61 61 61 61 61 60 59 58 58 58 58 57 57
61 61 60 60 60 60 60 61 61 61 61 61 61 60 59 58 58 59 59 59 58 57
61 61 61 61 60 61 61 61 61 61 61 61 61 61 59 59 59 59 59 59 59 58
61 61 61 61 61 61 61 61 61 61 61 61 61 60 59 59 60 59 59 59 59 59
60 60 60 61 61 60 61 61 62 62 62 62 62 61 60 60 60 60 59 59 60 61
60 60 60 61 61 61 60 61 62 62 62 62 62 61 61 61 61 61 62 61 61 61
59 60 60 61 61 61 62 61 61 61 63 62 62 62 62 61 60 62 62 62 61 61
60 61 61 61 61 61 62 63 66 64 63 61 61 62 61 60 60 60 61 61 61 61
61 61 60 61 61 60 60 62 62 62 59 58 59 49 53 58 60 59 60 59 60 60
62 61 60 61 60 59 59 59 58 58 57 56 55 46 48 52 59 58 60 59 60 60
63 61 60 60 59 57 57 58 56 56 56 55 54 46 47 51 59 58 59 60 60 59
63 61 60 59 58 57 56 57 56 55 55 55 54 46 47 55 60 60 60 61 60 59
63 61 60 59 58 57 58 59 57 56 55 52 55 46 48 56 60 59 58 59 57 52
62 61 60 59 58 57 59 60 58 56 54 55 55 53 46 50 57 58 58 57 57 55

GFSNIL_sfc_temp_048.txt.gz
Temp
62 62 61 61 61 61 61 62 63 63 63 63 63 62 62 61 61 61 60 60 60 60
61 61 61 61 61 61 61 62 62 63 62 63 63 63 62 61 61 61 61 61 61 60
62 62 62 61 61 61 61 62 62 62 62 62 63 63 62 61 62 61 61 61 61 60
61 62 62 62 62 62 62 62 62 63 62 63 63 62 61 62 63 62 61 62 61 61
61 61 61 61 62 62 62 63 63 63 63 64 64 63 63 62 63 62 62 61 61 61
60 60 61 62 61 62 62 62 63 63 64 63 64 63 63 63 63 63 62 61 61 62
60 61 61 62 61 62 63 63 63 64 64 64 64 64 64 63 63 63 62 62 61 61
61 61 62 62 62 63 63 64 64 64 65 63 63 63 63 63 62 63 61 61 61 61
61 61 61 61 62 62 62 63 64 62 62 61 61 47 51 59 62 62 61 60 60 60
62 62 61 62 61 61 60 60 61 61 60 60 58 46 47 52 62 61 61 60 60 60
63 62 61 61 60 59 59 59 58 59 59 59 56 47 47 50 61 61 61 62 60 59
64 62 61 60 59 58 58 58 58 58 58 59 58 46 45 55 62 61 61 61 60 59
64 62 61 60 59 59 60 59 58 57 58 52 59 45 47 56 61 59 59 58 57 50
63 62 61 60 60 59 60 59 57 57 57 58 56 52 47 50 60 59 58 58 57 54